OK1KKY-18 Weather Reports


time (UTC)temp
C
wind
direction
speed
KPH
gust
KPH
rain 1hr
cm
rain 24hr
cm
rain mn
cm
humidity
%
barometer
mb
20260905194751 12 0.0 0.0 0.00 0.00 0.00 80 1022.5
20260905193750 12 0.0 0.0 0.00 0.00 0.00 82 1022.3
20260905192750 12 0.0 0.0 0.00 0.00 0.00 85 1022.2
20260905191751 12 0.0 0.0 0.00 0.00 0.00 92 1021.8
20260905190750 12 0.0 0.0 0.00 0.00 0.00 82 1021.9
20260905185750 12 0.0 0.0 0.00 0.00 0.00 79 1021.9
20260905184750 12 0.0 0.0 0.00 0.00 0.00 77 1021.6
20260905183751 12 0.0 0.0 0.00 0.00 0.00 81 1021.2
20260905182751 11 0.0 0.0 0.00 0.00 0.00 86 1021.2
20260905181751 11 0.0 0.0 0.00 0.00 0.00 86 1021.3
20260905180750 11 0.0 0.0 0.00 0.00 0.00 86 1021.1
20260905175750 11 0.0 0.0 0.00 0.00 0.00 85 1020.9
20260905174750 11 0.0 0.0 0.00 0.00 0.00 83 1020.9
20260905173750 11 0.0 0.0 0.00 0.00 0.00 83 1020.9
20260905172750 12 0.0 0.0 0.00 0.00 0.00 79 1020.7
20260905171750 12 0.0 0.0 0.00 0.00 0.00 77 1020.7
20260905170750 13 0.0 0.0 0.00 0.00 0.00 74 1020.5
20260905165750 13 0.0 0.0 0.00 0.00 0.00 73 1020.5
20260905164750 13 0.0 0.0 0.00 0.00 0.00 68 1020.3
20260905163750 14 0.0 0.0 0.00 0.00 0.00 65 1020.2
20260905162750 15 0.0 0.0 0.00 0.00 0.00 61 1020.1
20260905161750 16 0.0 0.0 0.00 0.00 0.00 54 1020.1
20260905160750 16 0.0 0.0 0.00 0.00 0.00 56 1020.0
20260905155751 16 0.0 0.0 0.00 0.00 0.00 54 1019.9
20260905154751 16 0.0 0.0 0.00 0.00 0.00 60 1019.7
20260905153751 16 0.0 0.0 0.00 0.00 0.00 59 1019.6
20260905152750 16 0.0 0.0 0.00 0.00 0.00 56 1019.6
20260905151756 17 0.0 0.0 0.00 0.00 0.00 55 1019.7
20260905150750 17 0.0 0.0 0.00 0.00 0.00 52 1019.5
20260905145750 17 0.0 0.0 0.00 0.00 0.00 52 1019.5
20260905144750 17 0.0 0.0 0.00 0.00 0.00 52 1019.4
20260905143751 17 0.0 0.0 0.00 0.00 0.00 54 1019.6
20260905142750 17 0.0 0.0 0.00 0.00 0.00 50 1019.5
20260905141752 17 0.0 0.0 0.00 0.00 0.00 58 1019.7
20260905140750 17 0.0 0.0 0.00 0.00 0.00 53 1019.5
20260905135751 18 0.0 0.0 0.00 0.00 0.00 48 1019.5
20260905134750 18 0.0 0.0 0.00 0.00 0.00 49 1019.4
20260905133752 18 0.0 0.0 0.00 0.00 0.00 52 1019.3
20260905132750 18 0.0 0.0 0.00 0.00 0.00 50 1019.2
20260905131750 17 0.0 0.0 0.00 0.00 0.00 55 1019.4
20260905130750 17 0.0 0.0 0.00 0.00 0.00 63 1019.4
20260905125751 17 0.0 0.0 0.00 0.00 0.00 56 1019.4
20260905124750 17 0.0 0.0 0.00 0.00 0.00 58 1019.4
20260905123750 17 0.0 0.0 0.00 0.00 0.00 54 1019.4
20260905122750 17 0.0 0.0 0.00 0.00 0.00 53 1019.4
20260905121750 17 0.0 0.0 0.00 0.00 0.00 55 1019.6
20260905120751 17 0.0 0.0 0.00 0.00 0.00 58 1019.7
20260905115752 18 0.0 0.0 0.00 0.00 0.00 54 1019.7
20260905114751 17 0.0 0.0 0.00 0.00 0.00 53 1019.8
20260905113750 17 0.0 0.0 0.00 0.00 0.00 55 1019.8
20260905112750 17 0.0 0.0 0.00 0.00 0.00 56 1019.7
20260905111750 17 0.0 0.0 0.00 0.00 0.00 61 1019.9
20260905110750 16 0.0 0.0 0.00 0.00 0.00 60 1019.9
20260905105750 16 0.0 0.0 0.00 0.00 0.00 63 1019.8
20260905104750 16 0.0 0.0 0.00 0.00 0.00 61 1019.8
20260905103750 16 0.0 0.0 0.00 0.00 0.00 59 1019.8
20260905102750 17 0.0 0.0 0.00 0.00 0.00 57 1019.6
20260905101751 16 0.0 0.0 0.00 0.00 0.00 60 1019.5
20260905100750 16 0.0 0.0 0.00 0.00 0.00 64 1019.5
20260905095751 16 0.0 0.0 0.00 0.00 0.00 63 1019.3
20260905094751 16 0.0 0.0 0.00 0.00 0.00 65 1019.3
20260905093750 16 0.0 0.0 0.00 0.00 0.00 69 1019.4
20260905092753 16 0.0 0.0 0.00 0.00 0.00 73 1019.3
20260905091748 15 0.0 0.0 0.00 0.00 0.00 70 1019.3
20260905090748 15 0.0 0.0 0.00 0.00 0.00 74 1019.3
20260905085749 15 0.0 0.0 0.00 0.00 0.00 77 1019.5
20260905084748 15 0.0 0.0 0.00 0.00 0.00 74 1019.3
20260905083748 15 0.0 0.0 0.00 0.00 0.00 77 1019.2
20260905082748 14 0.0 0.0 0.00 0.00 0.00 85 1019.1
20260905081748 14 0.0 0.0 0.00 0.00 0.00 84 1018.9
20260905080748 13 0.0 0.0 0.00 0.00 0.00 83 1018.9
20260905075748 13 0.0 0.0 0.00 0.00 0.00 90 1019.0
20260905074748 13 0.0 0.0 0.00 0.00 0.00 89 1018.8
20260905073748 13 0.0 0.0 0.00 0.00 0.00 98 1018.8
20260905072748 13 0.0 0.0 0.00 0.00 0.00 97 1018.7
20260905071748 13 0.0 0.0 0.00 0.00 0.00 94 1018.8
20260905070748 13 0.0 0.0 0.00 0.00 0.00 92 1018.7
20260905065748 13 0.0 0.0 0.00 0.00 0.00 10 1018.7
20260905064748 12 0.0 0.0 0.00 0.00 0.00 10 1018.6
20260905063748 12 0.0 0.0 0.00 0.00 0.00 10 1018.5
20260905062748 12 0.0 0.0 0.00 0.00 0.00 10 1018.5
20260905061748 12 0.0 0.0 0.00 0.00 0.00 10 1018.4
20260905060748 12 0.0 0.0 0.00 0.00 0.00 10 1018.4
20260905055748 12 0.0 0.0 0.00 0.00 0.00 10 1018.2
20260905054748 12 0.0 0.0 0.00 0.00 0.00 10 1018.1
20260905053748 12 0.0 0.0 0.00 0.00 0.00 10 1018.0
20260905052748 12 0.0 0.0 0.00 0.00 0.00 10 1017.8
20260905051748 12 0.0 0.0 0.00 0.00 0.00 10 1017.6
20260905050748 12 0.0 0.0 0.00 0.00 0.00 10 1017.6
20260905045748 12 0.0 0.0 0.00 0.00 0.00 10 1017.2
20260905044748 12 0.0 0.0 0.00 0.00 0.00 10 1017.1
20260905043748 12 0.0 0.0 0.00 0.00 0.00 10 1017.2
20260905042748 12 0.0 0.0 0.00 0.00 0.00 10 1017.1
20260905041748 12 0.0 0.0 0.00 0.00 0.00 10 1017.1
20260905040748 12 0.0 0.0 0.00 0.00 0.00 10 1017.0
20260905035748 12 0.0 0.0 0.00 0.00 0.00 10 1016.7
20260905034749 12 0.0 0.0 0.00 0.00 0.00 10 1017.0
20260905033749 12 0.0 0.0 0.00 0.00 0.00 10 1016.8
20260905032749 12 0.0 0.0 0.00 0.00 0.00 10 1016.8
20260905031749 12 0.0 0.0 0.00 0.00 0.00 10 1016.7
20260905030749 11 0.0 0.0 0.00 0.00 0.00 10 1016.6
20260905025749 11 0.0 0.0 0.00 0.00 0.00 10 1016.7
20260905024749 11 0.0 0.0 0.00 0.00 0.00 10 1016.7
20260905023749 11 0.0 0.0 0.00 0.00 0.00 10 1015.9
20260905022749 11 0.0 0.0 0.00 0.00 0.00 10 1016.4
20260905021749 11 0.0 0.0 0.00 0.00 0.00 10 1016.4
20260905020749 11 0.0 0.0 0.00 0.00 0.00 10 1015.8
20260905015749 12 0.0 0.0 0.00 0.00 0.00 10 1015.7
20260905014749 12 0.0 0.0 0.00 0.00 0.00 10 1015.5
20260905013749 12 0.0 0.0 0.00 0.00 0.00 10 1015.1
20260905012749 12 0.0 0.0 0.00 0.00 0.00 10 1015.4
20260905011749 12 0.0 0.0 0.00 0.00 0.00 10 1015.4
20260905010749 12 0.0 0.0 0.00 0.00 0.00 10 1015.5
20260905005749 12 0.0 0.0 0.00 0.00 0.00 10 1015.5
20260905004749 12 0.0 0.0 0.00 0.00 0.00 10 1015.4
20260905003749 13 0.0 0.0 0.00 0.00 0.00 10 1015.5
20260905002749 13 0.0 0.0 0.00 0.00 0.00 10 1015.5
20260905001749 13 0.0 0.0 0.00 0.00 0.00 10 1015.2
20260905000749 13 0.0 0.0 0.00 0.00 0.00 10 1015.2
20260904235749 13 0.0 0.0 0.00 0.00 0.00 10 1015.2
20260904234749 13 0.0 0.0 0.00 0.00 0.00 10 1015.4
20260904233749 13 0.0 0.0 0.00 0.00 0.00 10 1015.3
20260904232749 14 0.0 0.0 0.00 0.00 0.00 10 1015.0
20260904231749 14 0.0 0.0 0.00 0.00 0.00 10 1014.2
20260904230749 14 0.0 0.0 0.00 0.00 0.00 10 1014.3
20260904225749 14 0.0 0.0 0.00 0.00 0.00 10 1014.4
20260904224749 15 0.0 0.0 0.00 0.00 0.00 99 1013.7
20260904223749 15 0.0 0.0 0.00 0.00 0.00 94 1014.1
20260904222749 16 0.0 0.0 0.00 0.00 0.00 85 1013.5
20260904221749 16 0.0 0.0 0.00 0.00 0.00 80 1013.7
20260904220749 16 0.0 0.0 0.00 0.00 0.00 81 1014.0
20260904215749 16 0.0 0.0 0.00 0.00 0.00 86 1014.0
20260904214749 16 0.0 0.0 0.00 0.00 0.00 85 1013.7
20260904213749 15 0.0 0.0 0.00 0.00 0.00 97 1013.5
20260904212752 15 0.0 0.0 0.00 0.00 0.00 96 1013.0
20260904211747 15 0.0 0.0 0.00 0.00 0.00 95 1012.8
20260904210747 15 0.0 0.0 0.00 0.00 0.00 92 1012.6
20260904205747 15 0.0 0.0 0.00 0.00 0.00 99 1012.7
20260904204747 16 0.0 0.0 0.00 0.00 0.00 10 1012.6
20260904203748 16 0.0 0.0 0.00 0.00 0.00 10 1012.3
20260904202747 16 0.0 0.0 0.00 0.00 0.00 10 1012.7
20260904201747 16 0.0 0.0 0.00 0.00 0.00 10 1012.7
20260904200747 16 0.0 0.0 0.00 0.00 0.00 10 1012.7
20260904195748 16 0.0 0.0 0.00 0.00 0.00 10 1012.7